Date String (YYYY-MM-DD hh:mm:ss) UTC,Instrument flags,Ambient pressure (hPa),Sample flow (lpm),Bypass flow (lpm),Sample temperature (°C),Ambient temperature (°C),ASC tube jacket temperature (°C),LED temperature (°C),Box temperature (°C),Sample RH (%),Span deviation,Mass concentration (μg/m³),Mass concentration (μg/m³),Mass concentration (μg/m³)
DateTimeUTC,F1_M11,P_M11,Q1_M11,Q2_M11,T1_M11,T2_M11,T3_M11,T4_M11,T5_M11,U1_M11,ZSPAN_M11,X0_M11,X2_M11,X1_M11
2022-12-12 09:00:00,,0814.0,5.00,0.00,24.7,23.1,00.0,33.7,26.4,07.1,0000.0,0011.67,0005.81,0005.19
2022-12-12 09:01:00,,0814.0,4.99,0.00,24.7,23.1,00.0,33.7,26.4,07.2,0000.0,0011.74,0005.86,0005.22
2022-12-12 09:02:00,,0814.1,5.00,0.00,24.7,23.1,00.0,33.7,26.4,07.3,0000.0,0011.56,0005.93,0005.27
2022-12-12 09:03:00,,0814.1,5.01,0.00,24.6,23.0,00.0,33.7,26.4,07.1,0000.0,0011.68,0005.87,0005.19
2022-12-12 09:04:00,,0814.1,5.00,0.00,24.6,23.0,00.0,33.6,26.3,07.1,0000.0,0011.62,0005.85,0005.17
2022-12-12 09:05:00,,0814.4,5.00,0.00,24.6,23.0,00.0,33.6,26.3,07.1,0000.0,0011.63,0005.86,0005.17
2022-12-12 09:06:00,,0814.3,4.99,0.00,24.6,23.0,00.0,33.6,26.3,07.1,0000.0,0012.53,0005.87,0005.16
2022-12-12 09:07:00,,0813.9,5.00,0.00,24.6,23.0,00.0,33.6,26.3,07.1,0000.0,0013.56,0005.88,0005.16
2022-12-12 09:08:00,,0814.0,4.99,0.00,24.6,22.9,00.0,33.6,26.2,07.1,0000.0,0013.15,0005.83,0005.13
2022-12-12 09:09:00,,0814.2,5.00,0.00,24.5,22.9,00.0,33.6,26.2,07.1,0000.0,0013.13,0005.85,0005.12
2022-12-12 09:10:00,,0814.0,5.01,0.00,24.5,22.9,00.0,33.6,26.2,07.1,0000.0,0012.90,0005.88,0005.13
2022-12-12 09:11:00,,0813.8,5.01,0.00,24.5,22.9,00.0,33.5,26.2,07.1,0000.0,0013.07,0005.84,0005.11
2022-12-12 09:12:00,,0814.0,5.00,0.00,24.5,22.9,00.0,33.5,26.2,07.1,0000.0,0013.21,0005.79,0005.09
2022-12-12 09:13:00,,0814.0,4.99,0.00,24.5,22.9,00.0,33.5,26.2,07.0,0000.0,0013.07,0005.71,0005.02
2022-12-12 09:14:00,,0814.1,4.99,0.00,24.5,22.9,00.0,33.5,26.2,07.0,0000.0,0012.84,0005.70,0005.05
2022-12-12 09:15:00,,0814.1,5.00,0.00,24.5,22.9,00.0,33.5,26.2,07.0,0000.0,0012.74,0005.70,0005.09
2022-12-12 09:16:00,,0814.2,5.01,0.00,24.5,22.9,00.0,33.5,26.3,06.9,0000.0,0012.83,0005.72,0005.10
2022-12-12 09:17:00,,0814.0,5.01,0.00,24.5,23.0,00.0,33.5,26.2,07.0,0000.0,0012.16,0005.81,0005.18
2022-12-12 09:18:00,,0813.9,5.00,0.00,24.5,22.9,00.0,33.5,26.2,07.2,0000.0,0011.06,0005.86,0005.20
2022-12-12 09:19:00,,0813.9,5.00,0.00,24.5,22.9,00.0,33.5,26.2,07.3,0000.0,0010.83,0005.77,0005.13
2022-12-12 09:20:00,,0813.9,5.00,0.00,24.4,22.9,00.0,33.5,26.1,07.2,0000.0,0011.01,0005.70,0005.09
2022-12-12 09:21:00,,0813.9,4.99,0.00,24.4,22.9,00.0,33.5,26.1,07.1,0000.0,0011.03,0005.65,0005.05
2022-12-12 09:22:00,,0813.9,5.02,0.00,24.4,22.8,00.0,33.4,26.1,07.1,0000.0,0010.80,0005.57,0004.99
2022-12-12 09:23:00,,0813.9,4.99,0.00,24.4,22.8,00.0,33.4,26.1,07.0,0000.0,0010.22,0005.42,0004.86
2022-12-12 09:24:00,,0813.9,4.99,0.00,24.4,22.8,00.0,33.4,26.1,07.0,0000.0,0010.45,0005.31,0004.77
2022-12-12 09:25:00,,0813.8,5.00,0.00,24.4,22.8,00.0,33.4,26.1,07.0,0000.0,0011.74,0005.33,0004.77
2022-12-12 09:26:00,,0814.0,5.01,0.00,24.4,22.8,00.0,33.4,26.1,06.9,0000.0,0011.74,0005.32,0004.73
2022-12-12 09:27:00,,0814.2,5.00,0.00,24.4,22.8,00.0,33.4,26.1,06.8,0000.0,0011.61,0005.23,0004.65
2022-12-12 09:28:00,,0814.3,5.00,0.00,24.4,22.8,00.0,33.4,26.1,06.7,0000.0,0011.29,0005.07,0004.52
2022-12-12 09:29:00,,0814.2,5.00,0.00,24.4,22.9,00.0,33.4,26.2,06.6,0000.0,0010.95,0004.92,0004.39
2022-12-12 09:30:00,,0814.3,4.98,0.00,24.4,22.9,00.0,33.4,26.2,06.7,0000.0,0010.82,0004.84,0004.34
2022-12-12 09:31:00,,0814.3,5.01,0.00,24.4,22.9,00.0,33.4,26.1,06.7,0000.0,0010.57,0004.79,0004.31
2022-12-12 09:32:00,,0814.2,5.00,0.00,24.4,22.9,00.0,33.4,26.1,06.9,0000.0,0010.59,0004.72,0004.24
2022-12-12 09:33:00,,0814.2,4.99,0.00,24.4,22.8,00.0,33.3,26.1,07.0,0000.0,0010.61,0004.65,0004.20
2022-12-12 09:34:00,,0813.8,4.99,0.00,24.4,22.8,00.0,33.3,26.1,06.9,0000.0,0010.57,0004.61,0004.15
2022-12-12 09:35:00,,0813.6,5.01,0.00,24.3,22.8,00.0,33.3,26.1,06.8,0000.0,0011.08,0004.54,0004.07
2022-12-12 09:36:00,,0813.6,4.99,0.00,24.3,22.8,00.0,33.3,26.1,06.9,0000.0,0009.72,0004.33,0003.89
2022-12-12 09:37:00,,0813.6,4.99,0.00,24.3,22.8,00.0,33.3,26.0,06.7,0000.0,0009.22,0004.15,0003.72
2022-12-12 09:38:00,,0813.6,5.01,0.00,24.3,22.8,00.0,33.3,26.0,06.6,0000.0,0008.96,0003.96,0003.55
2022-12-12 09:39:00,,0813.6,5.01,0.00,24.3,22.8,00.0,33.3,26.1,06.6,0000.0,0009.06,0003.88,0003.44
2022-12-12 09:40:00,,0813.5,4.99,0.00,24.3,22.8,00.0,33.3,26.1,06.6,0000.0,0009.08,0003.76,0003.33
2022-12-12 09:41:00,,0813.6,5.00,0.00,24.3,22.8,00.0,33.3,26.0,06.6,0000.0,0008.91,0003.63,0003.21
2022-12-12 09:42:00,,0813.5,4.99,0.00,24.3,22.8,00.0,33.3,26.1,06.5,0000.0,0008.72,0003.50,0003.08
2022-12-12 09:43:00,,0813.5,5.00,0.00,24.3,22.8,00.0,33.3,26.1,06.6,0000.0,0008.30,0003.32,0002.81
2022-12-12 09:44:00,,0813.5,5.01,0.00,24.3,22.8,00.0,33.3,26.0,06.7,0000.0,0007.80,0003.08,0002.48
2022-12-12 09:45:00,,0813.5,5.00,0.00,24.3,22.8,00.0,33.3,26.1,06.6,0000.0,0008.45,0002.72,0002.15
2022-12-12 09:46:00,,0813.5,5.00,0.00,24.3,22.7,00.0,33.3,26.1,06.6,0000.0,0008.05,0002.36,0001.87
2022-12-12 09:47:00,,0813.5,5.00,0.00,24.3,22.8,00.0,33.3,26.1,06.6,0000.0,0006.78,0002.17,0001.73
2022-12-12 09:48:00,,0813.6,5.00,0.00,24.3,22.8,00.0,33.2,26.0,06.7,0000.0,0006.52,0002.02,0001.62
2022-12-12 09:49:00,,0813.5,5.00,0.00,24.3,22.8,00.0,33.2,26.0,06.8,0000.0,0007.32,0001.94,0001.54
2022-12-12 09:50:00,,0813.6,4.99,0.00,24.3,22.7,00.0,33.2,25.9,07.0,0000.0,0007.00,0001.81,0001.45
2022-12-12 09:51:00,,0813.5,5.00,0.00,24.3,22.7,00.0,33.2,25.9,07.0,0000.0,0006.40,0001.72,0001.39
2022-12-12 09:52:00,,0813.5,4.99,0.00,24.2,22.7,00.0,33.2,25.9,06.7,0000.0,0006.16,0001.61,0001.33
2022-12-12 09:53:00,,0813.4,5.02,0.00,24.2,22.7,00.0,33.2,25.9,06.6,0000.0,0005.95,0001.50,0001.26
2022-12-12 09:54:00,,0813.4,4.99,0.00,24.2,22.6,00.0,33.2,25.9,06.6,0000.0,0005.96,0001.47,0001.22
2022-12-12 09:55:00,,0813.5,5.00,0.00,24.2,22.6,00.0,33.2,25.9,06.6,0000.0,0005.80,0001.47,0001.20
2022-12-12 09:56:00,,0813.5,5.01,0.00,24.2,22.6,00.0,33.2,25.9,06.6,0000.0,0004.31,0001.53,0001.20
2022-12-12 09:57:00,,0813.5,5.00,0.00,24.2,22.7,00.0,33.2,26.0,06.9,0000.0,0003.46,0001.54,0001.21
2022-12-12 09:58:00,,0813.5,4.99,0.00,24.2,22.6,00.0,33.2,25.9,06.9,0000.0,0003.63,0001.53,0001.20
2022-12-12 09:59:00,,0813.4,4.99,0.00,24.2,22.6,00.0,33.2,25.9,06.8,0000.0,0004.21,0001.54,0001.20
